This is the latest recevied weather packets stored in our database for station/object IU7LMH-13. If no packets are shown the sender has not sent any weather packets the latest 10 day(s).
| Time | Temp. | Humidity | Pressure | Rain* | Wind** | Luminosity | Snow |
|---|---|---|---|---|---|---|---|
| 1777835618 | 15.56° C | 71% | 1017.5 hPa | 0 mm | - | - | - |
| 1777834057 | 16.67° C | 68% | 1017.5 hPa | 0 mm | - | - | - |
| 1777833341 | 16.67° C | 67% | 1017.5 hPa | 0 mm | - | - | - |
| 1777833098 | 17.22° C | 66% | 1017.4 hPa | 0 mm | - | - | - |
| 1777832377 | 17.78° C | 63% | 1017.4 hPa | 0 mm | - | - | - |
| 1777832258 | 17.78° C | 62% | 1017.2 hPa | 0 mm | - | - | - |
| 1777832016 | 17.78° C | 62% | 1017.5 hPa | 0 mm | - | - | - |
| 1777831542 | 18.33° C | 61% | 1017.3 hPa | 0 mm | - | - | - |
| 1777830217 | 18.89° C | 57% | 1017.3 hPa | 0 mm | - | - | - |
| 1777830099 | 18.89° C | 56% | 1017.2 hPa | 0 mm | - | - | - |
| 1777829741 | 19.44° C | 54% | 1017.2 hPa | 0 mm | - | - | - |
| 1777829257 | 19.44° C | 54% | 1017.3 hPa | 0 mm | - | - | - |
| 1777828777 | 20° C | 53% | 1017.1 hPa | 0 mm | - | - | - |
| 1777828543 | 20° C | 53% | 1017.1 hPa | 0 mm | - | - | - |
| 1777827578 | 20.56° C | 50% | 1017 hPa | 0 mm | - | - | - |
| 1777827457 | 20.56° C | 51% | 1016.9 hPa | 0 mm | - | - | - |
| 1777826857 | 20.56° C | 50% | 1017.1 hPa | 0 mm | - | - | - |
| 1777826169 | 21.11° C | 51% | 1017 hPa | 0 mm | - | - | - |
| 1777825658 | 21.11° C | 51% | 1016.8 hPa | 0 mm | - | - | - |
| 1777825544 | 21.11° C | 51% | 1016.8 hPa | 0 mm | - | - | - |
| 1777825418 | 21.11° C | 49% | 1016.8 hPa | 0 mm | - | - | - |
| 1777824098 | 21.67° C | 52% | 1016.6 hPa | 0 mm | - | - | - |
| 1777823258 | 21.67° C | 51% | 1016.6 hPa | 0 mm | - | - | - |
| 1777822178 | 21.67° C | 50% | 1016.5 hPa | 0 mm | - | - | - |
| 1777821698 | 22.78° C | 51% | 1016.5 hPa | 0 mm | - | - | - |
* Rain latest hour (hover to see other rain measurements)
** Current wind speed in m/s (hover to see current wind gust speed)